Wind_Speed
89 84 87 89 79 68 64 68 75 76 82 86 86 86 84 80 79 78 75 73 72 70 70 71 71 71 69 68 66 63 61 59 57 56 53 50 47 45 43 42 40 38 36 35 34 33 32 30 28 26 24 23 22 22 25 26 28 29 27 25 21 20 20 17 16 17 17 16 15 14 14 13 13 12 12 12 12 14 15 16 15 14 14 14 14 15 15 15
88 87 88 91 80 68 65 67 74 77 79 85 86 86 85 82 79 78 75 72 72 70 69 70 71 71 70 69 67 65 63 61 59 57 54 51 48 47 45 43 41 40 38 37 37 35 34 32 30 28 27 25 22 22 23 24 27 30 28 25 24 23 20 17 18 17 17 17 16 16 15 14 14 13 13 13 12 13 15 17 17 16 15 15 15 15 15 15
87 88 90 94 83 68 66 66 72 76 75 81 85 86 86 84 80 77 75 72 71 71 70 70 71 71 70 69 68 67 65 63 62 58 55 53 51 49 47 44 42 41 40 39 38 37 35 33 31 30 29 26 23 22 22 22 25 30 29 27 26 23 20 21 20 17 17 17 17 17 15 15 15 15 15 14 13 14 16 17 18 16 16 15 14 14 14 15
88 87 90 97 86 69 67 65 69 74 74 77 80 85 86 84 82 78 75 72 70 69 68 68 70 70 70 69 69 68 66 65 63 58 56 56 54 51 49 45 43 42 42 41 38 37 35 33 32 32 30 27 25 23 22 22 23 27 29 28 26 23 23 23 21 19 18 18 18 18 17 16 16 16 16 14 15 15 15 16 16 16 16 16 15 14 14 15
88 88 89 98 89 72 68 66 65 69 74 78 77 81 87 83 81 79 75 73 68 63 61 65 70 70 70 70 69 68 67 67 62 57 58 57 55 53 51 47 45 44 43 41 39 37 36 35 34 33 31 29 26 25 22 22 23 25 28 28 26 26 26 24 22 21 20 19 19 19 18 17 17 17 16 16 17 16 13 14 14 16 17 17 16 15 15 15
83 89 89 98 95 77 70 68 65 65 69 77 77 77 84 84 81 78 74 72 69 64 58 60 70 72 72 71 70 70 68 67 62 57 59 58 56 55 52 49 47 45 44 41 39 38 38 37 36 34 33 31 28 27 23 22 23 24 27 27 27 27 26 25 25 23 21 20 20 19 19 18 18 18 17 17 19 16 13 13 13 15 17 18 17 17 17 17
75 88 88 94 99 85 71 69 68 65 65 72 77 77 82 84 82 79 76 73 73 72 59 54 66 71 72 73 71 71 70 68 62 58 60 58 56 56 54 52 48 45 44 43 40 39 39 38 38 36 35 33 31 29 25 24 23 23 24 26 27 28 27 26 26 25 23 22 20 20 21 20 20 18 18 19 20 15 14 14 13 15 17 18 19 19 19 18
67 81 88 91 99 93 74 69 70 65 65 70 76 78 81 84 83 80 78 77 78 79 64 50 57 63 67 72 72 71 71 69 64 59 60 59 57 57 56 53 50 46 46 45 42 41 42 40 39 38 37 35 33 30 27 27 24 22 22 23 26 27 27 27 26 26 24 23 22 22 22 22 21 19 19 22 20 16 15 15 14 15 17 18 20 20 20 19
62 72 84 88 96 100 85 74 71 65 64 69 73 75 78 83 85 81 80 81 81 82 75 58 52 53 58 66 70 72 71 69 64 60 60 59 58 58 56 54 50 47 47 46 43 43 44 43 41 41 40 38 35 31 29 29 25 22 21 21 24 24 24 25 26 27 27 26 24 23 23 23 22 20 20 23 21 17 18 17 16 16 17 19 20 20 21 20
59 64 77 84 90 100 98 86 77 67 63 67 72 74 75 81 85 84 82 83 81 81 81 70 57 52 54 60 66 69 70 69 64 61 60 59 59 58 55 53 49 46 46 46 45 47 46 45 44 43 42 40 36 34 31 29 25 23 23 23 23 21 21 22 23 25 27 28 26 24 24 23 23 22 21 24 22 20 20 19 18 17 18 19 20 21 22 22
58 61 70 80 85 93 103 98 84 72 65 65 71 74 74 78 84 86 83 82 81 78 76 72 64 58 56 55 59 64 66 69 67 63 62 60 59 58 56 53 48 46 46 47 48 50 51 50 47 45 44 41 38 35 32 30 27 26 26 24 23 22 21 21 21 23 26 29 28 26 24 23 24 22 22 26 25 23 22 20 19 19 19 20 20 21 21 23
57 60 65 74 80 88 101 106 94 79 69 65 67 73 74 76 82 86 85 81 80 78 72 69 67 65 61 54 54 60 64 68 70 67 64 62 60 58 59 55 49 48 49 48 48 50 52 52 48 47 47 42 39 36 33 31 29 28 28 26 25 23 22 21 22 23 25 28 29 29 26 23 22 22 25 29 28 25 22 21 21 20 20 20 20 20 21 23
55 58 63 70 75 84 99 107 101 87 74 68 66 69 74 77 79 83 86 83 78 77 74 68 68 70 67 60 54 57 65 69 70 70 67 64 62 60 60 58 52 51 54 53 51 50 50 50 49 49 47 42 39 37 34 33 31 30 30 29 27 25 23 22 22 22 24 27 29 32 28 23 22 24 28 31 28 25 23 23 22 22 22 21 21 21 21 22
57 57 60 67 71 80 97 105 104 95 80 73 67 64 70 78 81 81 85 83 77 76 75 71 68 70 70 64 55 56 65 70 70 71 70 66 63 62 60 58 55 54 56 55 54 52 49 50 51 49 46 43 40 37 36 34 33 33 32 30 29 26 23 22 22 21 21 23 28 32 28 22 23 25 28 30 28 25 24 24 24 24 23 23 22 22 22 22
59 59 59 64 67 75 92 102 104 101 88 78 71 64 65 74 82 82 83 83 79 75 75 74 71 71 73 66 57 57 65 70 71 71 71 68 64 62 61 58 56 57 58 55 52 51 52 53 52 49 47 44 40 38 37 35 34 35 32 31 30 26 23 21 22 20 18 19 23 27 25 22 23 25 28 30 29 25 24 25 25 25 26 25 24 23 23 23
58 60 60 62 64 70 85 97 101 104 98 84 76 68 63 68 78 81 83 84 82 78 76 77 76 75 75 69 58 58 65 69 70 71 71 69 66 64 63 59 57 59 58 55 51 50 53 56 54 51 47 43 40 39 38 36 36 36 33 33 30 25 24 23 22 21 19 19 20 22 21 18 21 24 27 29 28 26 24 24 24 25 27 27 26 25 24 23
56 59 60 61 61 66 79 91 97 103 105 93 82 75 67 65 72 77 81 84 84 83 80 77 77 76 77 77 64 55 62 69 69 70 70 69 68 67 66 63 62 61 58 54 50 47 51 56 56 53 48 44 42 40 41 39 39 37 33 32 27 24 26 25 23 22 21 21 22 23 20 16 20 23 24 26 27 27 26 26 25 24 25 27 28 27 25 24
55 57 59 61 61 62 72 85 92 98 105 101 89 81 74 68 69 74 79 83 85 86 83 75 70 74 81 85 71 54 56 65 67 68 68 69 69 68 69 68 68 66 62 56 50 46 50 54 56 54 50 47 44 43 42 39 37 34 30 29 27 26 28 27 26 24 24 25 26 27 21 17 20 22 22 23 24 26 27 28 28 25 23 24 27 28 27 26
55 56 57 60 61 61 67 79 88 94 101 105 97 88 81 73 69 73 78 83 87 89 87 80 72 72 81 86 78 65 59 59 62 64 67 69 69 69 71 71 72 71 67 61 54 49 51 54 55 55 52 47 43 41 38 36 36 34 32 32 31 30 30 30 30 27 27 29 28 27 22 19 20 21 21 22 22 23 24 28 29 26 24 23 24 26 28 28
54 56 57 58 60 60 63 72 82 90 97 102 102 96 89 81 73 72 77 83 86 89 90 88 83 77 77 82 82 78 72 66 63 62 64 68 70 70 71 72 72 72 70 65 59 54 53 56 56 55 51 46 41 39 37 38 40 37 36 36 34 33 32 33 34 29 28 31 29 28 25 22 21 22 22 22 22 20 19 22 25 25 26 25 24 24 26 28
54 55 57 58 59 59 62 68 75 84 93 97 102 102 95 88 80 71 72 78 82 85 87 88 88 84 79 79 80 78 78 78 73 67 65 67 70 71 71 72 73 73 71 67 63 58 56 58 57 53 51 47 45 43 42 43 43 40 38 38 37 36 34 35 35 29 30 33 31 31 30 25 23 24 24 24 22 19 17 19 20 22 24 24 23 23 24 26
55 55 56 58 59 59 60 64 71 78 88 96 100 104 101 92 82 69 66 72 77 79 81 86 88 87 82 79 76 73 72 74 76 74 70 67 70 71 71 73 74 72 71 69 67 63 60 60 57 54 54 51 48 47 46 46 45 42 41 41 39 36 35 35 34 31 33 37 35 34 33 29 24 25 26 26 23 21 21 21 20 21 21 21 20 20 21 24
55 55 56 57 58 59 58 61 67 72 82 94 99 102 103 96 84 74 68 68 73 78 78 82 88 88 85 82 77 72 68 67 72 74 72 69 68 70 72 73 73 72 72 72 70 67 63 60 58 56 56 54 51 49 49 48 46 44 43 43 40 37 35 35 35 35 36 37 37 36 36 31 26 26 26 26 26 24 23 23 22 22 20 19 19 20 21 21
56 56 56 57 57 58 58 59 64 69 76 89 97 100 102 100 91 84 76 67 68 78 79 78 85 89 88 87 81 75 70 66 66 71 74 73 69 69 71 71 72 73 73 72 70 68 65 60 59 58 57 55 52 50 50 50 48 46 45 43 41 39 36 36 37 37 36 38 40 39 38 34 29 27 26 27 30 27 25 26 25 23 21 19 19 19 20 21
57 57 56 57 57 56 57 58 61 66 72 82 92 98 101 102 98 92 85 76 68 75 81 77 80 87 88 88 83 77 73 68 65 68 73 75 74 73 71 69 71 71 70 70 68 66 64 62 61 59 56 54 53 52 51 51 50 48 46 43 41 40 38 38 39 39 37 40 42 41 39 36 32 30 28 28 30 28 27 28 26 25 23 22 21 20 20 21
58 57 57 57 57 56 55 56 59 63 69 77 87 95 100 101 101 97 92 88 77 74 80 79 75 81 85 87 84 75 71 69 67 65 68 71 74 74 73 72 71 69 67 66 65 65 64 64 62 59 57 54 54 54 52 52 51 50 48 44 42 42 40 40 40 41 40 42 44 42 40 39 35 31 28 27 29 28 27 27 26 26 26 25 24 23 22 22
57 57 57 57 57 56 55 55 57 61 66 73 81 89 98 100 101 99 92 93 86 75 78 80 74 74 80 85 84 75 71 71 69 66 65 66 68 70 72 73 72 70 68 66 65 66 66 65 64 61 58 57 57 56 54 52 52 52 49 44 43 44 43 43 43 44 45 45 45 43 41 41 37 31 26 26 30 28 26 26 27 28 27 27 27 25 24 24
58 58 57 57 58 57 56 55 55 59 63 69 76 84 95 98 97 96 91 92 88 77 76 79 75 73 76 81 83 77 72 71 70 69 68 66 67 67 67 69 69 68 68 67 66 66 67 66 64 61 59 59 58 55 53 50 50 52 49 44 45 46 45 45 46 47 48 47 46 44 43 42 39 33 26 26 30 29 26 28 29 28 28 28 28 27 26 27
60 59 57 57 58 57 57 55 54 57 61 67 74 81 90 94 92 92 89 90 92 84 77 76 76 76 76 79 83 75 65 65 69 69 70 70 69 68 66 64 63 64 65 65 66 65 64 63 59 56 55 54 52 52 52 49 49 52 50 46 46 47 48 48 49 49 50 49 47 45 45 42 41 38 32 29 31 30 28 29 30 29 29 29 29 29 29 29
61 59 58 57 57 57 56 54 54 56 61 67 73 79 86 91 91 86 84 91 98 93 82 75 76 79 77 77 81 75 63 61 67 69 70 71 69 68 66 62 61 63 64 63 63 62 60 58 55 52 51 50 49 51 51 49 51 54 52 49 47 49 50 51 51 51 51 51 49 46 45 42 42 41 37 31 27 27 28 30 30 29 30 31 30 30 29 29
62 60 59 58 57 57 55 54 55 57 61 66 71 77 82 88 89 82 83 96 102 96 87 78 76 79 76 74 78 79 71 65 67 73 73 71 71 70 69 67 64 64 66 65 62 59 57 57 55 53 51 51 51 51 50 50 53 55 55 53 50 51 53 52 52 52 52 52 49 46 43 42 43 42 39 33 25 25 29 30 31 30 31 32 32 31 29 29
62 61 59 59 57 57 56 56 56 57 61 64 67 74 79 85 86 80 84 96 99 97 92 81 75 77 73 67 67 71 72 70 69 73 74 71 72 75 73 71 70 66 67 67 62 58 57 57 56 54 53 53 52 50 50 51 54 56 57 56 55 55 56 56 55 53 52 51 49 47 42 43 44 42 42 38 30 29 31 30 32 33 33 34 34 34 32 31
63 61 60 60 58 58 58 57 57 59 62 62 64 70 76 82 86 84 87 93 95 99 96 83 77 77 70 59 56 59 62 67 71 71 71 67 67 74 76 74 73 69 67 67 64 62 61 60 58 56 56 55 54 52 52 52 54 56 58 58 58 58 58 57 54 53 51 50 50 48 44 44 45 43 43 42 36 32 31 30 32 33 33 34 35 36 36 34
64 62 61 60 59 60 59 57 58 60 62 62 63 67 73 79 85 88 92 95 94 98 97 88 80 80 74 60 53 57 57 61 70 73 71 65 62 69 76 77 76 72 69 67 64 62 62 61 58 55 56 56 54 53 52 52 52 53 55 56 56 56 54 53 52 51 50 50 50 49 46 46 46 44 43 42 39 36 31 29 31 31 31 32 33 35 36 36
65 64 62 61 61 60 59 59 60 61 61 63 63 66 70 76 82 88 95 97 95 97 97 93 86 82 80 68 56 57 60 61 70 76 75 68 61 64 70 75 77 76 74 71 67 64 60 58 55 51 52 53 51 52 52 51 52 54 55 56 55 53 51 51 52 51 49 49 50 50 49 48 46 43 42 41 41 39 34 29 29 32 32 31 32 34 35 37
66 65 64 63 61 60 59 60 62 61 61 63 64 66 68 71 79 88 94 96 95 98 97 95 92 86 81 74 63 58 58 62 69 77 81 76 65 61 63 67 72 75 76 75 72 69 65 62 59 54 53 53 53 54 54 52 54 56 56 56 54 51 50 51 51 49 48 49 51 52 52 49 45 43 41 40 40 40 39 35 31 31 33 33 33 34 34 36
67 66 65 63 61 61 61 60 62 63 63 63 63 66 67 67 74 84 91 94 94 98 98 94 96 93 83 74 66 61 59 60 68 77 83 82 75 66 61 59 63 68 71 71 70 69 67 66 62 57 54 54 55 55 55 54 56 56 54 52 50 49 50 49 49 48 48 51 53 54 53 48 43 42 40 37 37 39 40 40 36 32 33 34 34 33 33 34
68 67 66 64 63 62 62 62 63 64 65 65 63 63 66 68 71 77 87 92 93 98 100 96 95 96 90 73 57 55 59 59 65 74 79 82 81 75 65 58 57 60 63 65 66 66 64 62 60 56 53 52 52 53 54 54 54 53 50 48 47 48 49 48 48 49 50 52 53 52 50 48 44 41 38 34 33 36 40 42 41 36 33 33 34 34 34 34
69 69 67 65 64 64 64 64 64 65 66 68 66 64 65 68 70 73 81 90 94 97 99 97 94 94 96 82 56 46 53 57 60 69 75 80 81 78 69 59 56 57 60 62 63 62 61 59 59 56 53 51 52 53 53 51 50 49 48 48 48 49 50 50 49 49 50 51 49 47 48 48 45 40 36 33 32 34 37 40 41 40 38 36 34 35 36 36
70 71 68 66 65 66 66 66 67 68 68 68 68 66 64 66 70 72 76 85 92 97 98 97 96 93 94 91 69 49 48 54 56 60 69 77 80 76 71 65 59 56 57 59 60 60 60 60 59 56 53 52 52 50 48 48 48 47 47 47 48 49 51 51 49 47 47 46 44 45 48 49 44 38 33 31 32 32 33 35 38 41 42 40 37 36 36 38
71 72 70 67 67 68 69 69 70 70 70 69 68 68 66 65 69 72 74 80 88 94 98 97 96 96 93 92 82 62 49 49 53 54 59 69 78 78 73 69 65 60 59 60 60 60 61 62 60 57 53 52 51 48 46 46 45 44 46 46 46 47 48 47 46 44 43 44 42 43 48 49 43 36 32 30 30 31 31 33 36 39 41 41 39 39 39 39
71 73 72 69 69 71 71 71 72 71 71 71 69 68 66 64 67 72 73 77 83 89 95 96 94 95 93 89 86 76 62 52 50 51 53 58 68 75 74 71 69 65 61 59 58 59 60 63 63 61 57 54 52 50 49 47 44 44 47 46 46 47 45 44 44 42 41 42 40 41 49 51 43 34 31 29 29 30 31 33 36 38 40 41 42 42 42 40
70 71 73 72 70 71 73 73 74 74 72 70 68 67 66 64 66 70 72 75 80 84 91 94 91 91 93 90 83 76 68 60 52 50 51 53 56 64 70 71 71 69 64 61 61 60 61 64 67 65 62 59 55 51 49 46 44 44 43 43 45 46 45 45 46 44 44 42 41 43 46 44 36 30 30 30 30 32 34 35 37 39 40 42 43 44 43 42
68 68 72 75 73 72 75 75 75 75 72 69 69 67 66 65 66 69 71 73 77 81 85 89 89 90 93 92 85 72 63 62 57 51 49 51 53 57 62 67 71 72 69 63 61 61 62 65 68 67 65 64 60 56 53 49 45 44 43 45 47 47 47 49 48 48 48 43 42 42 36 29 28 30 32 33 33 33 35 36 37 39 41 42 43 44 44 44
69 69 71 75 75 72 75 77 75 74 72 69 69 67 65 66 67 69 70 70 74 79 83 85 86 88 92 94 91 79 63 56 58 56 50 49 53 56 57 63 70 72 69 62 57 59 62 64 66 68 68 68 66 61 56 52 49 46 45 45 46 46 48 48 47 49 45 38 37 36 27 23 28 30 32 34 33 32 34 36 38 40 41 42 43 44 44 44
72 72 72 75 76 75 76 77 76 75 73 70 69 67 65 66 67 68 70 71 74 77 81 82 79 80 89 94 94 88 70 54 55 59 55 51 52 54 55 59 67 71 71 66 58 56 60 61 61 61 60 59 60 58 52 47 44 42 40 38 39 41 44 46 48 46 37 32 36 33 27 28 31 30 31 34 34 33 35 37 40 41 42 44 44 44 44 45
76 75 75 77 78 79 79 79 78 77 74 71 70 67 65 65 65 67 71 72 74 76 78 79 73 74 86 93 93 91 77 58 52 56 57 53 49 49 52 55 62 69 74 73 65 59 59 58 52 49 48 47 49 52 51 44 38 36 35 35 36 39 43 46 46 38 32 35 36 32 31 32 31 30 31 32 34 36 37 40 42 43 44 45 46 46 46 47
80 77 77 78 79 81 82 79 77 76 75 73 71 69 67 66 65 67 70 72 75 77 79 81 77 74 83 90 90 89 79 63 54 53 55 55 49 47 49 51 56 64 73 77 74 69 66 59 51 48 48 46 45 49 51 48 44 40 38 38 38 40 43 44 40 35 36 37 29 25 29 30 28 30 31 33 36 39 40 43 45 46 47 47 48 48 48 48
81 80 79 80 80 81 82 80 76 76 76 75 74 72 70 70 68 67 68 72 77 79 80 84 82 78 81 87 87 84 77 66 57 52 52 55 53 49 50 51 52 58 69 76 77 77 74 68 63 62 59 55 53 53 53 52 50 47 44 43 42 42 43 41 35 34 37 33 25 25 30 27 28 33 34 35 39 41 43 45 45 46 47 48 49 48 48 48
81 83 83 83 82 81 82 83 81 79 77 77 78 76 73 72 71 68 68 72 78 80 80 83 83 78 80 87 88 81 72 64 55 47 48 56 58 53 51 51 48 51 61 69 72 72 70 68 67 65 63 62 61 60 58 56 53 50 49 47 46 45 44 40 35 36 39 34 30 33 34 31 31 35 36 37 39 41 42 42 43 46 48 48 49 48 48 48
78 83 85 86 86 83 83 85 85 84 83 81 81 79 75 75 73 70 71 74 79 82 81 82 83 79 78 87 92 83 67 58 51 41 40 49 53 50 50 51 50 50 53 59 62 62 60 58 58 58 60 62 61 60 60 59 56 54 53 53 52 53 51 48 45 45 44 38 36 38 38 34 31 30 32 35 38 39 40 41 45 48 49 49 49 48 48 48
75 80 84 87 89 89 89 89 88 88 88 85 82 80 77 76 74 72 74 77 81 84 82 80 83 82 80 89 96 83 61 52 50 43 39 42 44 43 44 47 50 51 50 51 54 57 57 56 56 57 60 62 62 64 64 64 65 65 64 64 66 66 64 60 56 53 49 44 42 41 36 30 28 29 31 34 37 39 41 43 46 48 48 48 48 47 47 47
Wind_Direction
207 207 206 204 205 204 201 206 209 209 210 211 213 214 212 211 213 214 212 211 211 212 213 213 213 214 213 213 212 211 211 210 210 211 211 210 210 211 211 211 211 211 212 213 215 216 216 217 217 220 224 228 230 229 227 222 214 207 205 205 205 215 219 217 221 224 221 222 226 225 222 220 218 216 216 220 224 229 231 228 222 216 217 218 216 216 220 224
207 206 204 203 203 199 194 199 206 209 209 209 212 213 213 211 212 214 213 212 211 212 213 214 214 214 214 214 214 213 212 211 211 212 212 212 212 212 212 211 211 211 212 214 216 217 217 217 217 220 222 224 226 228 229 225 216 208 206 207 209 216 218 219 222 223 225 225 227 228 227 224 222 220 220 219 219 226 230 232 228 221 219 221 223 221 220 225
207 207 203 201 202 198 191 193 201 207 208 208 210 212 213 212 211 212 214 213 212 213 213 214 215 214 214 214 214 214 213 213 212 212 213 214 213 213 212 211 212 212 213 215 216 218 220 219 218 220 222 222 224 227 228 225 218 210 208 210 211 213 217 221 221 221 225 227 228 231 230 228 227 225 224 222 221 224 227 231 231 228 225 224 229 231 228 227
207 207 204 201 202 199 191 189 196 203 207 207 208 210 212 212 211 211 212 213 213 214 215 216 216 215 216 215 215 215 214 213 211 212 215 215 214 214 213 212 212 214 215 215 216 219 222 223 222 223 223 222 222 224 226 225 221 216 214 214 212 211 216 220 220 221 224 227 230 232 233 232 232 231 228 225 226 227 228 231 233 232 231 229 228 233 236 234
209 207 205 201 201 199 192 188 190 198 205 207 206 207 210 211 210 210 211 212 211 212 216 218 219 218 217 216 216 215 216 215 211 212 215 215 214 215 214 213 213 215 216 216 217 221 223 225 224 224 225 224 223 223 223 225 223 220 219 219 216 214 216 219 222 222 222 224 229 231 234 235 236 236 232 229 230 230 230 232 232 232 233 233 229 229 234 237
211 209 206 203 202 200 195 189 187 193 201 206 207 205 207 209 210 209 209 211 209 209 211 212 216 218 218 217 217 216 217 215 211 212 214 214 215 215 215 214 215 217 216 216 218 221 224 225 225 225 226 225 224 223 221 223 223 221 221 222 223 221 220 221 224 224 223 224 227 230 232 234 236 239 238 235 234 231 229 231 230 231 233 235 233 230 229 231
212 210 208 205 203 201 198 191 188 190 195 203 208 207 205 206 208 208 207 209 207 207 207 206 210 215 217 218 218 217 216 215 212 213 214 214 215 215 215 215 216 217 216 217 219 222 225 225 226 226 226 225 225 223 220 222 223 221 222 223 226 226 224 224 225 227 227 226 226 228 230 232 234 237 239 239 238 233 230 231 228 228 231 233 234 234 231 229
214 211 210 208 205 203 199 194 189 189 191 197 205 207 206 205 206 207 206 208 207 206 205 204 207 210 215 217 218 218 216 215 213 214 215 214 215 215 215 216 216 217 216 218 221 223 225 226 227 226 225 225 225 223 221 223 222 221 222 223 227 226 226 227 227 229 230 229 227 227 228 229 231 233 238 242 241 235 232 231 227 228 228 229 231 233 234 231
215 212 211 210 207 205 203 198 191 188 188 192 200 206 207 205 205 206 206 207 208 208 208 207 205 208 216 217 217 219 217 216 215 216 215 214 214 214 215 217 218 218 217 219 222 225 225 226 227 226 225 224 224 223 222 224 222 222 223 224 228 227 227 229 230 232 232 231 228 226 228 228 231 231 235 242 242 237 234 232 229 228 228 229 230 230 233 233
215 214 212 211 210 208 208 204 194 189 186 188 197 203 205 205 205 205 206 207 208 211 213 213 209 209 217 219 218 219 218 218 218 217 217 215 214 214 214 217 220 219 218 221 225 226 226 227 226 225 225 224 224 224 223 225 223 224 225 225 229 228 228 230 232 235 235 234 230 227 228 227 230 231 235 243 244 239 236 233 232 232 232 233 232 230 231 233
215 215 213 212 212 210 209 208 199 193 188 186 192 199 204 205 205 205 206 207 207 211 214 216 216 213 215 220 221 220 218 218 219 218 218 216 214 213 213 215 218 216 215 220 224 226 226 225 225 224 224 224 223 224 224 226 225 227 227 226 230 230 231 232 233 236 236 235 231 229 228 226 229 231 236 242 241 239 238 235 234 236 236 237 236 234 232 233
215 216 214 212 213 211 210 210 206 199 192 186 188 194 201 204 205 205 205 206 206 209 212 214 218 217 215 220 221 219 217 218 218 217 217 216 213 213 212 212 215 215 215 217 218 222 222 221 222 222 222 223 223 223 224 226 226 229 231 230 230 231 233 236 239 239 238 235 231 230 228 226 226 227 234 241 241 240 240 238 236 237 239 240 241 239 236 235
214 216 216 214 213 211 211 212 210 205 196 189 187 189 197 203 206 206 206 206 205 207 210 211 215 217 217 221 223 218 215 215 216 217 217 216 214 212 212 212 214 216 218 216 211 215 219 218 219 220 221 222 222 223 223 226 228 230 233 233 232 232 233 238 244 245 243 236 230 229 227 224 223 223 233 242 245 243 243 242 240 239 240 241 242 242 240 238
214 216 216 216 214 211 212 214 213 209 201 191 188 187 193 201 204 206 206 205 203 205 207 209 214 216 217 222 225 220 214 212 214 215 216 216 214 212 211 213 215 216 216 213 207 210 217 217 217 218 220 221 221 223 224 224 227 229 232 235 235 233 234 239 245 247 245 234 228 230 227 222 223 222 231 242 246 246 245 246 245 242 242 242 242 242 243 241
214 216 217 217 216 211 212 215 214 213 207 194 190 188 189 197 202 203 206 204 202 204 204 207 214 215 215 220 223 219 212 210 211 212 214 215 214 213 211 212 215 214 211 208 205 207 214 216 217 218 220 222 223 225 226 225 228 230 231 235 236 236 236 239 243 244 244 235 230 233 230 226 228 223 227 237 243 245 246 248 248 247 246 245 244 244 243 243
215 216 217 217 217 213 212 216 216 215 212 202 195 192 188 194 199 200 203 204 201 202 203 206 212 213 213 217 219 217 211 208 209 211 212 214 214 213 211 211 213 210 206 204 204 206 211 214 216 219 222 224 225 227 230 229 230 230 231 235 236 238 241 241 242 241 241 242 240 239 234 231 235 231 229 236 242 243 244 248 250 250 250 249 249 248 246 245
216 216 217 217 217 214 212 215 217 216 215 210 203 198 192 191 197 199 200 203 201 201 202 204 210 212 213 215 213 212 211 208 208 209 210 213 213 212 211 210 210 207 203 202 204 207 211 214 216 220 223 224 226 228 229 229 230 231 233 239 241 242 245 244 243 241 241 244 246 245 237 230 239 241 238 239 243 246 245 247 250 251 253 253 253 252 251 250
216 216 217 217 217 215 212 214 218 218 217 215 210 205 200 193 194 198 199 200 202 202 201 203 209 212 213 213 210 209 209 207 208 209 210 212 213 213 212 211 212 213 211 209 209 212 214 215 216 219 220 222 225 228 230 232 236 239 241 245 245 241 243 245 242 240 241 241 241 244 240 233 239 244 247 246 248 251 249 248 250 251 254 256 255 255 254 254
215 216 217 217 217 215 212 213 217 218 218 218 215 211 207 198 192 196 198 199 201 201 200 201 205 210 213 213 212 212 209 206 210 212 210 212 213 213 214 214 216 221 222 221 218 216 216 217 217 217 218 222 227 232 238 244 246 245 243 242 241 237 237 241 239 234 237 240 239 243 240 235 240 245 249 250 250 254 253 249 249 252 254 257 257 256 256 255
213 215 216 217 217 215 213 212 215 218 218 219 218 215 212 206 198 194 197 200 201 202 203 204 206 209 212 213 214 215 214 213 215 216 213 213 214 215 216 217 219 223 226 226 225 221 219 219 217 217 220 226 235 242 246 247 245 243 243 242 241 240 237 239 240 236 239 243 243 245 241 234 238 244 248 249 249 252 253 249 247 250 253 255 256 257 257 256
212 214 215 216 216 215 213 212 213 216 218 218 218 217 214 212 206 194 194 201 202 204 206 206 208 210 211 213 215 215 217 219 219 219 216 214 215 217 218 220 222 223 225 227 228 226 223 219 217 221 226 231 238 243 244 244 244 244 244 244 242 242 240 240 242 242 243 245 244 246 245 236 234 242 247 250 251 249 249 246 243 244 248 251 253 255 258 257
212 213 215 216 216 215 213 212 212 214 215 217 218 217 215 214 209 196 192 199 201 204 207 207 209 211 211 213 215 215 217 219 219 219 218 215 215 217 219 221 222 224 226 228 229 227 224 221 221 227 231 235 238 241 243 243 244 244 244 244 244 243 244 244 245 243 244 246 245 246 248 242 235 239 246 251 253 249 245 245 244 244 247 251 255 257 258 258
212 212 214 215 216 216 215 213 212 212 213 215 217 218 216 215 212 202 195 196 199 204 206 207 209 211 211 214 215 215 216 218 219 220 220 218 217 217 218 221 223 225 227 228 228 229 228 226 229 233 235 238 240 241 243 244 244 245 245 246 247 247 248 249 247 244 245 248 249 248 249 246 240 239 243 249 251 247 245 248 251 254 256 257 259 260 261 262
211 212 213 215 215 216 216 214 212 211 211 212 216 217 217 216 214 209 202 197 199 203 204 206 210 211 212 215 216 217 218 219 221 222 223 224 222 220 220 221 223 226 228 228 229 231 231 233 235 237 239 242 242 243 243 244 245 245 246 247 249 249 249 250 250 248 247 250 250 249 248 247 243 241 240 244 248 248 248 252 256 260 262 261 261 261 263 265
211 211 212 214 215 216 216 215 213 212 210 210 213 215 217 217 216 214 210 206 203 202 202 204 209 211 212 215 217 218 219 219 220 222 224 226 226 225 223 223 224 226 228 229 231 233 233 235 236 238 240 242 243 243 243 245 246 246 247 248 249 250 249 250 252 251 250 250 250 250 250 248 245 243 241 243 250 252 252 255 258 261 261 261 262 262 261 261
211 211 211 212 214 215 216 215 213 212 210 209 210 213 216 217 217 217 216 215 210 200 200 204 206 210 211 213 215 216 218 218 217 218 221 224 225 226 225 226 226 226 228 230 232 234 234 235 237 237 238 240 241 241 241 243 245 245 245 246 248 249 250 250 251 252 251 249 249 250 252 251 246 244 245 248 252 253 255 258 259 260 260 260 261 260 261 260
211 211 211 211 213 214 215 215 213 213 210 209 209 210 214 216 218 218 217 220 215 199 199 204 204 207 209 212 213 214 218 218 216 216 218 221 223 224 225 226 227 228 229 231 232 232 233 234 236 237 237 238 238 239 239 240 242 243 243 244 246 247 248 249 250 251 250 249 249 251 253 252 247 245 248 252 256 256 258 259 258 257 258 259 259 259 260 261
210 211 211 210 211 212 213 213 212 212 210 209 208 208 212 215 218 218 217 220 214 199 199 204 204 205 207 209 211 214 220 220 219 217 216 219 221 221 223 223 226 229 230 232 233 233 233 234 236 237 237 237 238 239 239 240 241 243 242 242 244 246 248 249 249 251 251 250 250 252 253 251 249 249 250 253 258 260 259 259 260 258 258 259 261 263 263 264
210 211 210 209 210 210 212 211 211 211 210 209 208 207 211 214 217 218 218 219 212 203 202 202 202 206 207 207 208 212 217 218 218 217 216 219 220 219 220 219 221 224 225 228 230 231 232 233 233 234 234 235 236 237 238 239 241 243 243 242 244 246 248 249 250 251 253 252 250 252 255 255 253 253 255 255 258 263 263 263 264 264 263 263 263 263 264 264
209 210 211 209 208 209 210 210 210 210 209 208 208 207 209 213 216 217 219 218 214 210 207 201 201 205 207 208 208 210 214 216 215 214 216 219 220 218 217 216 218 220 221 221 223 225 227 229 229 229 230 231 231 234 235 237 239 241 242 242 242 244 246 247 249 250 252 252 251 252 257 259 256 253 254 257 260 265 267 267 266 265 264 263 263 263 263 264
209 209 210 209 208 208 209 209 209 209 209 209 208 208 208 211 216 218 218 216 215 213 210 204 202 204 208 211 212 214 217 219 217 214 215 218 220 219 215 213 215 219 220 217 215 219 222 224 226 226 228 230 231 234 235 236 238 240 241 242 241 242 245 246 247 249 251 252 253 255 258 261 257 253 256 260 261 260 261 263 264 263 263 264 266 267 266 266
210 209 210 209 208 208 208 208 208 208 209 208 208 209 208 211 216 218 217 215 215 215 212 207 202 200 203 209 213 214 216 217 214 212 213 217 220 221 218 215 215 216 217 214 215 220 221 223 224 224 226 229 230 233 233 234 237 239 240 241 240 241 243 245 247 249 251 253 256 257 259 259 257 257 261 263 262 258 257 259 261 264 267 270 272 272 270 269
210 209 209 209 207 208 208 208 208 209 209 207 208 210 210 212 216 216 215 213 214 215 212 208 203 198 200 206 211 213 215 214 210 207 210 214 219 221 220 219 218 217 216 215 217 219 218 219 220 221 225 227 230 232 232 234 236 238 240 241 240 241 244 246 249 251 254 256 257 258 259 258 257 258 260 263 266 266 264 263 264 267 269 271 274 275 275 275
210 209 209 208 207 208 207 207 208 209 208 207 209 211 212 214 215 214 214 213 213 214 214 211 206 202 203 207 210 213 215 212 206 205 207 211 215 218 219 220 219 218 218 217 218 219 220 222 222 224 228 230 232 233 233 234 235 237 239 241 241 243 247 249 251 252 253 255 255 256 257 257 257 257 259 264 268 269 268 267 269 271 271 273 275 276 277 278
209 209 208 207 207 207 206 207 209 209 208 208 210 212 214 215 213 211 212 213 212 213 214 214 210 208 209 210 209 211 216 214 207 206 210 213 216 217 217 218 219 219 219 220 221 222 226 230 230 232 235 237 238 238 238 237 236 237 238 239 240 242 244 246 247 248 250 251 253 254 255 256 258 259 261 263 265 269 271 271 272 275 276 277 276 277 278 279
209 209 208 207 206 206 206 207 209 209 209 211 212 214 214 215 212 209 210 212 212 212 214 215 212 211 213 212 210 207 213 216 212 210 213 216 217 217 217 218 219 220 221 222 223 225 227 230 231 233 235 237 238 239 240 238 237 239 239 239 242 242 241 243 245 247 248 250 252 254 256 257 259 259 260 264 267 270 274 275 273 275 277 277 275 276 277 278
209 209 208 207 206 206 205 207 209 210 211 212 215 216 215 213 211 209 208 210 211 211 214 215 214 213 213 213 212 209 210 215 216 216 217 218 219 219 219 218 219 221 222 224 226 228 230 232 232 231 231 232 233 235 237 235 235 237 239 240 241 240 240 242 244 246 248 251 253 254 256 257 258 259 261 265 268 270 272 275 275 274 275 276 276 275 275 274
210 209 207 206 206 206 206 207 208 210 211 213 215 217 215 213 211 209 208 208 208 210 213 215 214 214 213 211 211 213 214 214 215 218 220 220 221 221 219 217 217 220 222 224 227 229 230 232 233 232 230 231 231 232 233 233 235 239 240 240 239 239 241 242 243 246 248 250 252 254 255 256 258 260 262 264 266 268 270 274 277 277 275 274 275 277 276 273
211 209 207 206 207 207 208 209 209 210 212 213 215 215 214 213 211 208 208 207 207 209 213 214 213 213 214 212 207 208 215 216 215 218 221 222 223 222 220 217 215 218 220 222 224 226 227 229 230 229 229 230 231 231 232 234 236 238 239 238 237 239 240 240 241 244 246 248 251 253 254 255 257 260 263 263 263 265 269 274 278 281 280 277 276 275 274 272
211 209 206 205 208 209 210 211 211 212 213 213 214 215 214 213 211 208 207 207 207 209 213 214 213 213 214 213 210 205 211 217 217 217 219 222 223 223 221 217 215 217 219 221 222 222 223 225 226 226 226 226 228 231 234 235 236 237 239 240 240 240 242 241 240 241 244 247 250 253 255 256 258 259 259 260 261 265 270 275 278 280 281 280 277 273 270 269
210 209 206 205 208 210 211 213 213 213 214 213 213 214 215 213 211 209 207 207 207 209 212 214 214 214 214 214 214 212 212 218 219 218 217 219 221 222 221 217 216 217 218 220 220 220 221 222 223 224 224 226 229 231 231 231 232 236 238 239 242 243 245 246 246 244 245 248 250 253 254 254 254 254 252 256 262 267 271 273 274 275 276 277 275 271 268 267
210 207 205 205 209 212 212 214 215 215 214 213 212 214 215 214 212 210 209 208 208 209 211 214 215 214 214 214 215 217 218 221 222 221 218 217 219 221 221 220 220 220 221 222 221 221 221 220 221 223 224 225 227 227 228 230 232 233 234 235 237 239 240 242 244 242 241 243 245 247 249 250 250 252 254 258 263 266 267 268 269 270 270 271 271 269 269 268
210 206 206 207 210 213 214 214 215 215 214 213 212 213 215 215 213 211 210 210 210 209 210 214 216 214 213 212 213 216 220 222 222 222 220 218 218 219 221 222 222 222 222 222 223 222 221 220 220 222 224 225 225 225 227 229 230 231 233 234 234 235 236 235 236 236 235 235 238 241 247 250 249 252 258 262 263 262 261 261 262 264 265 266 268 269 271 271
210 206 206 209 210 213 216 215 214 215 213 211 212 213 213 215 214 212 212 212 212 210 210 213 217 215 213 212 211 213 220 223 221 220 219 218 217 217 218 220 221 222 222 223 225 224 222 221 221 221 223 224 225 223 221 223 227 229 227 227 229 231 231 231 233 234 234 233 235 240 247 251 251 255 260 262 260 257 257 258 260 262 263 264 265 266 267 268
211 207 206 209 211 213 216 216 214 215 213 212 213 213 213 215 214 213 214 214 214 212 211 213 216 216 213 213 212 213 218 222 220 218 217 215 214 215 218 219 220 221 221 223 226 225 223 223 222 223 224 225 226 225 225 229 232 231 228 227 229 229 230 232 232 233 235 235 239 246 254 255 251 253 256 258 258 256 256 259 261 262 261 260 260 261 262 264
213 209 207 209 212 213 214 214 214 214 214 214 215 214 214 216 215 215 216 215 214 213 212 213 215 215 213 212 212 212 215 219 218 216 216 214 212 212 216 219 220 220 219 220 220 220 221 222 223 225 227 230 232 231 231 235 236 235 236 235 235 236 235 233 231 234 241 242 244 250 255 252 250 251 254 257 259 257 256 257 258 259 258 258 259 260 261 263
214 210 208 210 213 214 212 212 213 214 214 216 217 215 216 216 215 216 217 217 215 213 212 212 214 215 212 211 212 211 213 217 216 213 215 216 213 212 216 219 219 218 218 218 217 218 221 221 217 220 225 229 232 228 226 229 233 235 236 236 240 244 241 235 233 238 244 243 245 249 252 252 254 254 253 254 256 256 256 256 256 256 256 256 257 258 260 262
214 211 210 213 214 215 213 211 213 215 215 217 219 218 219 218 217 217 218 218 216 214 212 212 214 214 210 209 210 209 211 217 216 211 213 214 212 212 214 215 216 217 217 218 218 219 222 221 217 221 226 227 228 225 223 227 232 233 235 238 241 242 239 236 236 239 242 245 251 252 248 249 250 249 249 250 252 254 255 255 255 255 256 256 257 259 261 263
215 212 213 216 216 216 215 213 214 217 218 220 220 221 221 221 218 217 218 220 219 215 213 213 214 213 210 207 207 206 209 215 213 206 208 212 213 215 215 213 213 214 216 219 221 223 225 227 227 232 236 234 231 228 226 228 230 231 234 238 238 236 233 233 237 242 243 248 254 249 246 248 246 245 248 249 249 250 251 253 257 259 260 260 260 262 264 266
215 214 215 218 218 216 216 215 216 219 220 222 223 223 224 224 221 218 218 221 220 216 214 214 215 214 211 207 204 203 206 211 208 202 206 213 215 218 220 218 215 214 215 219 222 225 228 231 233 237 238 234 232 231 229 229 230 230 231 232 233 234 233 236 245 248 246 252 255 250 254 262 254 245 245 247 248 251 253 257 260 262 262 263 264 266 267 269
216 215 216 220 220 217 217 217 218 220 220 222 225 225 225 225 223 221 221 222 221 217 214 214 214 213 211 208 203 200 202 206 204 199 203 212 217 222 227 226 223 222 222 222 223 226 228 230 231 231 231 229 228 228 228 229 231 232 231 231 236 243 245 249 254 253 251 257 256 249 257 267 259 247 247 250 252 255 257 258 258 259 261 263 265 267 268 270
216 216 216 219 220 218 219 219 220 222 221 221 224 226 227 226 224 223 225 223 220 218 214 213 214 213 211 209 203 198 197 199 198 199 208 214 216 220 225 227 226 225 227 227 227 230 232 233 231 229 229 229 229 229 231 234 235 236 239 243 249 254 254 255 255 253 252 253 250 250 258 263 254 246 246 248 250 253 253 253 254 257 261 263 265 268 271 273
Height
5624 5631 5639 5650 5659 5664 5667 5672 5678 5683 5689 5697 5703 5711 5719 5725 5730 5736 5742 5747 5752 5756 5760 5765 5769 5773 5777 5781 5785 5789 5792 5796 5799 5802 5806 5811 5815 5818 5820 5823 5826 5829 5831 5833 5835 5836 5838 5839 5842 5844 5846 5848 5850 5853 5854 5856 5857 5858 5859 5861 5863 5864 5865 5867 5869 5870 5871 5872 5873 5873 5874 5875 5876 5877 5877 5878 5879 5881 5881 5882 5883 5884 5885 5886 5886 5887 5888 5889
5618 5625 5632 5644 5653 5658 5662 5666 5673 5679 5683 5690 5697 5704 5713 5720 5726 5732 5738 5743 5748 5752 5756 5760 5764 5769 5773 5778 5782 5786 5789 5792 5796 5799 5804 5809 5812 5815 5817 5821 5824 5826 5829 5831 5833 5834 5835 5837 5839 5842 5844 5846 5849 5851 5852 5855 5856 5856 5858 5859 5860 5862 5864 5866 5867 5869 5870 5871 5872 5872 5873 5874 5875 5876 5876 5877 5878 5879 5880 5881 5882 5884 5884 5885 5886 5887 5888 5889
5613 5619 5627 5638 5646 5651 5656 5660 5667 5674 5678 5684 5691 5698 5706 5714 5721 5728 5734 5739 5744 5748 5752 5756 5760 5765 5770 5774 5778 5782 5785 5788 5792 5797 5803 5806 5809 5811 5815 5818 5821 5824 5826 5829 5831 5832 5834 5836 5837 5839 5842 5845 5847 5849 5851 5853 5854 5855 5856 5857 5858 5861 5863 5864 5865 5867 5869 5870 5871 5871 5872 5873 5874 5875 5875 5876 5877 5877 5878 5880 5882 5883 5884 5885 5886 5887 5888 5889
5607 5614 5623 5632 5640 5645 5650 5656 5661 5668 5674 5679 5685 5692 5700 5708 5716 5723 5729 5735 5740 5744 5750 5754 5757 5761 5767 5771 5774 5778 5782 5783 5789 5796 5800 5802 5806 5809 5812 5816 5819 5822 5824 5827 5829 5831 5833 5835 5836 5837 5840 5843 5845 5847 5849 5851 5852 5854 5855 5855 5857 5859 5860 5861 5863 5865 5867 5868 5869 5870 5871 5872 5873 5873 5874 5876 5876 5876 5877 5879 5881 5883 5883 5884 5885 5886 5887 5888
5602 5609 5617 5626 5634 5639 5644 5650 5657 5663 5668 5674 5679 5686 5694 5703 5711 5718 5725 5731 5738 5743 5748 5750 5753 5758 5762 5767 5771 5775 5778 5779 5787 5794 5795 5798 5803 5806 5809 5813 5816 5818 5822 5825 5827 5829 5831 5833 5834 5836 5839 5841 5844 5845 5847 5849 5850 5852 5853 5854 5856 5857 5858 5860 5862 5863 5865 5866 5867 5869 5870 5871 5872 5872 5874 5875 5874 5875 5877 5878 5880 5881 5882 5883 5884 5885 5886 5887
5597 5604 5612 5620 5627 5632 5637 5643 5651 5658 5663 5669 5675 5680 5688 5697 5705 5714 5722 5728 5735 5740 5743 5744 5748 5754 5758 5763 5767 5770 5773 5777 5786 5790 5791 5795 5799 5803 5807 5810 5813 5816 5820 5823 5824 5826 5828 5830 5832 5834 5836 5839 5841 5843 5845 5847 5848 5850 5851 5852 5854 5855 5857 5858 5859 5861 5863 5864 5866 5867 5869 5870 5871 5871 5873 5873 5873 5875 5877 5877 5879 5880 5881 5881 5882 5883 5884 5885
5592 5599 5606 5614 5621 5625 5630 5637 5644 5652 5657 5663 5670 5675 5682 5690 5699 5708 5717 5723 5729 5735 5738 5739 5742 5748 5753 5758 5762 5766 5769 5774 5782 5786 5787 5792 5796 5799 5803 5806 5810 5813 5817 5820 5822 5824 5826 5828 5830 5832 5834 5837 5839 5841 5844 5845 5846 5848 5849 5851 5852 5853 5855 5857 5858 5859 5861 5863 5864 5865 5867 5868 5869 5871 5872 5871 5872 5875 5876 5876 5877 5878 5879 5880 5881 5881 5882 5884
5587 5594 5601 5609 5617 5621 5625 5631 5639 5646 5652 5657 5664 5671 5677 5685 5693 5702 5711 5717 5722 5728 5732 5735 5739 5744 5748 5753 5758 5762 5766 5771 5779 5782 5784 5789 5792 5795 5800 5803 5807 5810 5814 5817 5819 5821 5823 5826 5828 5830 5832 5834 5836 5838 5841 5842 5844 5846 5847 5849 5850 5851 5853 5855 5857 5858 5859 5861 5862 5864 5865 5866 5868 5870 5870 5869 5871 5874 5874 5875 5876 5876 5877 5878 5879 5880 5881 5882
5582 5589 5596 5603 5612 5617 5620 5626 5634 5640 5646 5653 5659 5666 5673 5680 5687 5697 5706 5710 5716 5722 5727 5731 5736 5741 5746 5750 5753 5758 5764 5771 5777 5779 5781 5785 5788 5792 5797 5801 5804 5807 5811 5814 5816 5818 5820 5823 5825 5827 5829 5832 5834 5836 5838 5839 5842 5845 5846 5847 5848 5849 5852 5853 5855 5856 5857 5859 5860 5862 5863 5865 5866 5868 5869 5867 5869 5872 5873 5873 5874 5875 5875 5876 5877 5878 5879 5881
5578 5584 5590 5597 5605 5613 5617 5622 5629 5634 5641 5648 5653 5661 5668 5675 5682 5691 5699 5704 5712 5718 5722 5727 5732 5737 5741 5744 5748 5753 5762 5768 5772 5775 5778 5782 5785 5790 5794 5798 5802 5806 5809 5811 5813 5815 5818 5820 5822 5825 5827 5829 5831 5833 5834 5836 5840 5842 5844 5845 5846 5848 5850 5851 5853 5854 5855 5856 5858 5860 5861 5863 5865 5866 5867 5866 5868 5870 5871 5872 5873 5874 5874 5874 5876 5877 5878 5879
5574 5579 5585 5591 5598 5607 5613 5617 5622 5628 5635 5642 5648 5655 5663 5670 5677 5685 5692 5700 5709 5714 5719 5725 5730 5733 5736 5740 5745 5751 5759 5762 5765 5770 5774 5778 5783 5787 5791 5795 5799 5803 5806 5808 5810 5812 5815 5816 5819 5822 5824 5826 5829 5830 5832 5835 5838 5839 5841 5843 5844 5846 5848 5849 5851 5852 5853 5854 5856 5858 5859 5861 5863 5865 5865 5863 5865 5868 5869 5871 5872 5872 5873 5873 5874 5875 5877 5878
5571 5575 5580 5586 5592 5601 5607 5610 5616 5622 5630 5637 5643 5650 5657 5665 5672 5679 5687 5695 5705 5711 5716 5720 5725 5729 5732 5735 5739 5746 5754 5756 5760 5766 5769 5774 5779 5782 5786 5791 5795 5799 5802 5804 5806 5808 5810 5812 5816 5818 5820 5824 5827 5828 5831 5833 5835 5836 5838 5840 5843 5844 5846 5847 5848 5849 5851 5852 5854 5856 5857 5859 5862 5863 5862 5860 5863 5866 5868 5869 5870 5871 5871 5872 5873 5874 5875 5876
5568 5572 5576 5581 5586 5595 5600 5603 5610 5617 5624 5632 5639 5646 5653 5660 5668 5675 5682 5691 5701 5707 5712 5717 5721 5724 5726 5729 5734 5741 5746 5748 5754 5761 5765 5769 5774 5778 5783 5787 5791 5795 5797 5799 5802 5804 5806 5810 5812 5814 5818 5822 5824 5826 5828 5830 5832 5834 5835 5837 5840 5842 5844 5846 5846 5848 5849 5850 5852 5852 5854 5858 5860 5860 5859 5858 5861 5864 5866 5867 5869 5869 5870 5871 5871 5872 5873 5875
5564 5568 5573 5577 5582 5589 5593 5596 5604 5611 5618 5626 5633 5641 5647 5654 5662 5670 5678 5687 5697 5703 5709 5717 5718 5719 5723 5726 5731 5736 5739 5742 5749 5756 5761 5766 5770 5774 5779 5782 5787 5790 5793 5795 5797 5799 5803 5806 5807 5810 5815 5818 5821 5824 5826 5828 5830 5831 5832 5835 5838 5840 5843 5844 5844 5846 5847 5848 5849 5850 5853 5857 5857 5858 5858 5858 5860 5862 5864 5865 5867 5868 5869 5869 5870 5871 5872 5873
5560 5565 5570 5574 5578 5584 5588 5589 5597 5605 5611 5619 5627 5634 5642 5649 5657 5665 5674 5682 5691 5698 5704 5709 5710 5713 5717 5721 5726 5730 5732 5737 5744 5751 5756 5761 5766 5771 5775 5778 5782 5786 5788 5790 5793 5795 5798 5802 5804 5807 5811 5815 5819 5821 5822 5826 5827 5828 5831 5832 5835 5839 5841 5842 5842 5844 5845 5847 5848 5848 5852 5855 5855 5855 5856 5856 5858 5860 5862 5863 5864 5866 5867 5868 5868 5869 5870 5871
5556 5561 5566 5570 5574 5580 5584 5584 5590 5598 5605 5613 5620 5628 5637 5646 5653 5660 5669 5677 5686 5692 5695 5698 5701 5706 5712 5716 5721 5724 5728 5734 5740 5747 5752 5757 5762 5766 5771 5774 5778 5781 5782 5785 5788 5791 5794 5798 5801 5804 5808 5813 5816 5818 5819 5823 5824 5825 5828 5829 5833 5838 5839 5840 5840 5842 5843 5845 5846 5847 5850 5853 5853 5853 5854 5855 5856 5858 5860 5861 5862 5863 5865 5866 5867 5867 5868 5869
5552 5557 5562 5567 5570 5575 5581 5580 5583 5591 5599 5606 5613 5622 5631 5641 5650 5657 5663 5672 5679 5682 5687 5693 5698 5704 5706 5707 5715 5722 5726 5732 5737 5742 5748 5752 5757 5761 5766 5769 5773 5775 5777 5781 5784 5788 5791 5794 5797 5801 5806 5809 5812 5814 5815 5818 5820 5823 5827 5829 5834 5837 5836 5837 5839 5840 5841 5842 5843 5844 5848 5851 5851 5851 5852 5854 5854 5855 5857 5858 5859 5861 5862 5864 5865 5866 5867 5868
5548 5553 5557 5562 5566 5571 5577 5578 5578 5584 5592 5599 5607 5615 5624 5635 5646 5652 5656 5664 5671 5676 5683 5689 5692 5693 5692 5699 5715 5723 5725 5730 5734 5739 5743 5747 5752 5757 5761 5764 5767 5769 5771 5776 5780 5784 5787 5790 5794 5797 5801 5804 5807 5810 5812 5816 5820 5824 5829 5830 5832 5834 5833 5834 5836 5837 5839 5839 5840 5841 5846 5850 5849 5849 5850 5852 5853 5854 5855 5856 5857 5858 5860 5861 5862 5864 5865 5866
5544 5549 5553 5558 5562 5566 5572 5575 5575 5578 5585 5594 5601 5609 5618 5628 5639 5645 5650 5654 5660 5664 5670 5675 5678 5682 5690 5704 5716 5718 5722 5728 5730 5734 5739 5743 5747 5752 5755 5759 5762 5763 5766 5771 5776 5780 5783 5787 5790 5793 5797 5801 5805 5809 5813 5817 5820 5823 5826 5826 5828 5829 5830 5831 5831 5834 5835 5835 5837 5839 5843 5847 5847 5847 5848 5849 5851 5852 5853 5853 5854 5856 5857 5858 5860 5861 5863 5864
5540 5544 5549 5553 5557 5561 5567 5572 5573 5575 5580 5588 5596 5603 5612 5621 5628 5635 5641 5646 5651 5656 5663 5672 5679 5684 5693 5701 5705 5711 5719 5721 5723 5729 5735 5739 5743 5747 5750 5754 5757 5758 5761 5768 5772 5776 5779 5782 5786 5792 5796 5801 5805 5808 5812 5814 5815 5819 5822 5823 5825 5826 5827 5828 5827 5831 5833 5833 5834 5836 5840 5844 5845 5845 5846 5846 5848 5850 5851 5851 5852 5854 5854 5856 5857 5858 5860 5861
5536 5540 5544 5548 5553 5557 5561 5567 5572 5573 5576 5583 5591 5598 5606 5614 5620 5629 5639 5645 5650 5657 5664 5674 5679 5680 5687 5692 5699 5709 5712 5712 5718 5724 5728 5734 5738 5741 5745 5748 5751 5755 5760 5765 5767 5770 5773 5778 5785 5791 5794 5798 5801 5804 5807 5809 5811 5816 5818 5820 5822 5823 5825 5825 5826 5830 5831 5830 5832 5833 5835 5840 5843 5843 5843 5844 5846 5849 5850 5849 5850 5851 5852 5853 5854 5856 5857 5858
5532 5536 5540 5544 5548 5552 5557 5562 5568 5572 5575 5580 5586 5593 5602 5610 5619 5631 5640 5644 5650 5656 5662 5670 5673 5675 5682 5688 5695 5701 5702 5705 5712 5715 5720 5727 5731 5736 5742 5745 5749 5755 5758 5759 5761 5765 5770 5777 5784 5787 5789 5793 5797 5800 5803 5805 5808 5812 5814 5816 5818 5821 5823 5824 5825 5828 5828 5827 5829 5830 5831 5835 5840 5841 5841 5842 5845 5847 5848 5847 5848 5849 5850 5851 5852 5854 5854 5855
5527 5532 5536 5540 5544 5549 5553 5558 5564 5570 5576 5579 5583 5591 5599 5607 5617 5626 5631 5637 5645 5649 5654 5662 5665 5670 5676 5680 5686 5692 5695 5701 5707 5713 5719 5722 5726 5733 5737 5741 5746 5750 5751 5753 5759 5763 5770 5777 5782 5784 5786 5789 5793 5797 5799 5802 5806 5809 5811 5814 5817 5820 5821 5822 5823 5824 5825 5825 5826 5828 5828 5832 5838 5839 5840 5841 5841 5844 5845 5846 5847 5847 5848 5850 5851 5851 5852 5853
5523 5528 5531 5536 5541 5545 5549 5554 5560 5567 5574 5579 5582 5588 5594 5602 5611 5617 5623 5630 5636 5640 5647 5654 5658 5663 5668 5674 5682 5688 5693 5700 5706 5713 5717 5719 5726 5730 5732 5738 5742 5744 5746 5752 5758 5761 5768 5774 5777 5780 5783 5786 5790 5794 5797 5799 5803 5806 5808 5812 5814 5816 5818 5819 5819 5821 5823 5823 5822 5825 5824 5828 5834 5837 5838 5839 5838 5841 5843 5844 5845 5846 5847 5848 5848 5849 5849 5850
5519 5523 5528 5533 5537 5542 5546 5551 5557 5564 5570 5577 5580 5583 5587 5594 5603 5611 5618 5623 5627 5634 5643 5648 5652 5656 5663 5672 5678 5683 5689 5696 5701 5706 5710 5716 5722 5725 5730 5735 5736 5739 5745 5751 5755 5759 5764 5768 5771 5776 5779 5783 5786 5790 5794 5796 5799 5802 5805 5809 5810 5812 5815 5816 5816 5818 5820 5819 5818 5821 5821 5824 5830 5833 5835 5836 5836 5838 5840 5841 5843 5844 5844 5845 5845 5845 5846 5847
5514 5519 5524 5529 5534 5539 5543 5548 5554 5559 5565 5572 5576 5580 5583 5589 5597 5604 5612 5614 5617 5627 5635 5640 5645 5651 5660 5666 5670 5678 5683 5687 5694 5700 5705 5710 5714 5719 5726 5729 5732 5739 5745 5748 5751 5755 5759 5763 5768 5771 5775 5779 5782 5785 5790 5792 5795 5797 5801 5805 5806 5808 5810 5812 5813 5814 5816 5815 5814 5817 5819 5819 5824 5830 5833 5834 5834 5836 5837 5839 5840 5841 5841 5841 5842 5842 5843 5844
5510 5515 5520 5526 5531 5536 5540 5545 5550 5554 5561 5567 5573 5579 5580 5585 5591 5596 5604 5605 5607 5619 5627 5632 5640 5648 5655 5659 5666 5673 5673 5679 5691 5696 5700 5705 5708 5714 5719 5722 5730 5736 5739 5743 5746 5750 5756 5760 5764 5767 5771 5774 5777 5782 5786 5788 5790 5792 5797 5801 5802 5804 5806 5808 5810 5809 5810 5811 5811 5814 5817 5815 5818 5827 5832 5832 5831 5833 5835 5836 5836 5837 5838 5838 5838 5840 5841 5841
5506 5511 5516 5522 5526 5532 5537 5541 5546 5551 5558 5563 5570 5575 5576 5580 5583 5587 5593 5592 5598 5613 5620 5626 5637 5645 5649 5656 5664 5667 5670 5682 5690 5690 5695 5700 5703 5709 5713 5719 5728 5733 5736 5739 5742 5748 5754 5756 5760 5765 5767 5770 5776 5780 5782 5785 5786 5788 5794 5797 5798 5800 5802 5804 5805 5805 5806 5808 5809 5811 5813 5813 5815 5822 5829 5829 5828 5830 5832 5832 5832 5833 5834 5835 5836 5837 5838 5838
5502 5507 5512 5517 5522 5528 5532 5538 5543 5547 5552 5558 5562 5566 5571 5572 5574 5579 5581 5582 5594 5608 5613 5623 5634 5639 5642 5650 5656 5660 5668 5677 5680 5685 5692 5692 5696 5703 5708 5715 5723 5727 5730 5734 5738 5744 5749 5753 5758 5761 5763 5770 5775 5775 5778 5781 5783 5785 5790 5793 5795 5796 5798 5799 5800 5801 5802 5803 5807 5809 5810 5811 5812 5816 5823 5826 5826 5827 5828 5828 5829 5830 5830 5831 5832 5833 5834 5835
5497 5503 5507 5513 5519 5524 5530 5536 5540 5542 5546 5551 5554 5559 5564 5563 5564 5569 5566 5572 5590 5601 5608 5619 5628 5632 5637 5644 5649 5653 5661 5666 5671 5682 5686 5685 5692 5698 5704 5713 5718 5719 5723 5728 5732 5738 5744 5749 5752 5755 5760 5766 5768 5769 5773 5777 5778 5781 5784 5787 5790 5791 5792 5794 5795 5797 5798 5799 5803 5806 5808 5810 5810 5811 5817 5822 5825 5825 5824 5824 5824 5825 5826 5826 5828 5829 5830 5831
5493 5498 5503 5510 5516 5521 5528 5531 5533 5537 5541 5545 5549 5555 5558 5556 5557 5556 5556 5572 5591 5596 5603 5614 5621 5628 5635 5640 5644 5649 5656 5660 5666 5673 5675 5680 5688 5691 5697 5703 5706 5710 5715 5720 5726 5732 5739 5741 5745 5751 5757 5760 5762 5765 5770 5771 5773 5777 5779 5782 5785 5786 5787 5788 5790 5792 5794 5796 5800 5803 5806 5807 5807 5809 5812 5818 5823 5822 5820 5820 5820 5820 5821 5822 5824 5826 5827 5828
5488 5494 5499 5505 5511 5517 5522 5524 5528 5532 5535 5541 5546 5548 5550 5549 5546 5544 5555 5577 5587 5587 5598 5608 5615 5625 5632 5636 5641 5646 5651 5654 5660 5666 5670 5677 5681 5684 5692 5696 5698 5704 5708 5715 5723 5729 5733 5735 5740 5747 5750 5754 5757 5760 5763 5765 5768 5771 5773 5776 5778 5780 5781 5783 5786 5788 5791 5794 5797 5800 5802 5802 5804 5808 5808 5812 5817 5816 5816 5817 5816 5817 5818 5819 5821 5822 5824 5825
5483 5490 5495 5501 5507 5512 5515 5519 5524 5525 5528 5536 5539 5540 5541 5538 5534 5540 5557 5573 5575 5580 5595 5605 5612 5621 5626 5631 5635 5640 5646 5650 5656 5662 5667 5674 5677 5681 5689 5693 5698 5702 5707 5715 5720 5721 5723 5727 5733 5740 5743 5748 5751 5754 5757 5761 5764 5766 5768 5770 5772 5773 5776 5780 5784 5787 5789 5792 5793 5795 5797 5798 5802 5805 5805 5806 5809 5810 5812 5813 5814 5814 5815 5816 5817 5818 5819 5821
5479 5485 5491 5497 5502 5504 5509 5515 5517 5518 5524 5530 5530 5530 5530 5527 5532 5545 5557 5564 5569 5580 5594 5603 5611 5617 5620 5625 5630 5634 5641 5645 5651 5657 5662 5667 5669 5674 5680 5685 5691 5698 5704 5711 5714 5717 5720 5724 5731 5738 5741 5746 5748 5750 5754 5758 5760 5762 5764 5766 5768 5771 5776 5780 5781 5783 5785 5787 5788 5790 5792 5795 5798 5801 5803 5803 5804 5805 5806 5808 5810 5811 5812 5813 5814 5815 5816 5817
5474 5480 5486 5491 5494 5498 5506 5510 5509 5513 5519 5521 5521 5521 5519 5522 5534 5546 5553 5557 5568 5582 5591 5599 5608 5611 5614 5621 5626 5631 5636 5640 5647 5653 5656 5659 5663 5668 5672 5677 5686 5694 5699 5705 5710 5716 5721 5726 5734 5740 5741 5745 5747 5747 5750 5754 5755 5757 5759 5760 5764 5770 5774 5774 5775 5778 5781 5781 5783 5785 5788 5792 5795 5798 5800 5799 5800 5800 5801 5803 5806 5807 5808 5809 5810 5811 5812 5812
5470 5475 5481 5486 5490 5496 5502 5503 5504 5509 5512 5513 5513 5511 5514 5523 5534 5544 5550 5556 5568 5581 5586 5592 5600 5603 5609 5615 5619 5625 5631 5636 5643 5647 5649 5655 5662 5667 5670 5676 5685 5690 5695 5701 5707 5713 5717 5720 5728 5733 5735 5739 5741 5741 5745 5749 5749 5751 5754 5756 5762 5768 5768 5769 5771 5775 5776 5776 5779 5782 5785 5789 5791 5794 5796 5795 5796 5797 5796 5798 5801 5802 5804 5804 5805 5806 5807 5808
5465 5470 5476 5483 5487 5493 5496 5497 5499 5503 5505 5506 5505 5507 5515 5525 5533 5543 5551 5557 5567 5576 5580 5585 5592 5597 5604 5610 5615 5620 5625 5630 5637 5640 5644 5650 5656 5662 5668 5675 5681 5687 5695 5702 5706 5710 5713 5716 5723 5727 5728 5731 5734 5735 5739 5741 5741 5745 5751 5756 5762 5763 5763 5766 5768 5770 5771 5772 5775 5778 5781 5785 5787 5790 5793 5793 5793 5794 5793 5793 5794 5797 5799 5799 5800 5801 5802 5803
5460 5465 5473 5479 5483 5487 5491 5492 5493 5495 5498 5498 5500 5506 5516 5523 5531 5540 5548 5555 5563 5569 5572 5577 5585 5594 5601 5607 5614 5618 5621 5625 5630 5634 5640 5645 5650 5657 5665 5671 5677 5684 5692 5698 5701 5705 5710 5714 5719 5722 5724 5728 5730 5731 5733 5736 5739 5744 5749 5754 5756 5756 5758 5762 5763 5765 5766 5765 5769 5774 5777 5780 5784 5788 5789 5789 5789 5789 5790 5790 5789 5791 5793 5794 5795 5796 5796 5797
5454 5460 5468 5475 5479 5482 5484 5485 5487 5489 5489 5489 5494 5503 5510 5518 5527 5536 5543 5551 5558 5562 5563 5570 5580 5590 5596 5604 5611 5614 5617 5621 5625 5629 5635 5640 5647 5656 5664 5671 5675 5680 5686 5691 5694 5700 5706 5709 5712 5716 5721 5724 5725 5725 5729 5734 5737 5741 5745 5748 5750 5750 5752 5755 5757 5760 5760 5761 5766 5770 5772 5776 5782 5785 5784 5784 5785 5785 5786 5787 5786 5785 5787 5788 5790 5791 5791 5792
5448 5456 5465 5472 5475 5476 5478 5479 5480 5480 5480 5484 5493 5503 5510 5518 5526 5532 5539 5547 5553 5554 5557 5565 5576 5583 5590 5599 5606 5609 5614 5618 5622 5628 5633 5638 5647 5655 5662 5668 5673 5678 5683 5686 5690 5696 5700 5703 5706 5711 5714 5716 5718 5722 5728 5731 5734 5737 5739 5742 5745 5745 5746 5749 5752 5755 5757 5759 5763 5765 5767 5774 5779 5780 5780 5779 5780 5781 5782 5784 5783 5781 5781 5782 5784 5785 5786 5786
5443 5451 5461 5467 5468 5468 5469 5470 5470 5473 5478 5485 5494 5501 5508 5515 5522 5528 5535 5541 5546 5550 5555 5563 5571 5579 5587 5595 5601 5606 5610 5613 5618 5624 5629 5635 5643 5649 5657 5665 5671 5675 5677 5679 5685 5691 5695 5698 5703 5707 5709 5712 5716 5721 5724 5726 5729 5733 5735 5737 5741 5742 5744 5747 5750 5753 5755 5756 5759 5761 5762 5770 5775 5774 5775 5775 5775 5777 5778 5779 5779 5778 5777 5777 5777 5779 5780 5781
5436 5447 5457 5461 5460 5460 5462 5463 5466 5471 5476 5483 5491 5499 5506 5513 5519 5526 5532 5536 5540 5545 5552 5557 5564 5573 5582 5590 5597 5603 5606 5610 5615 5620 5626 5633 5640 5649 5659 5665 5668 5671 5675 5680 5686 5689 5691 5695 5698 5701 5704 5707 5710 5714 5717 5720 5725 5727 5728 5732 5735 5736 5740 5743 5744 5748 5750 5751 5755 5755 5755 5765 5771 5769 5770 5772 5772 5773 5773 5774 5774 5773 5773 5773 5772 5772 5774 5776
5433 5447 5453 5453 5454 5455 5456 5458 5462 5466 5472 5481 5491 5498 5504 5510 5516 5522 5527 5531 5534 5540 5546 5550 5555 5564 5573 5583 5593 5599 5603 5608 5612 5618 5626 5633 5641 5650 5655 5659 5663 5667 5671 5675 5678 5682 5685 5687 5689 5693 5696 5700 5704 5710 5713 5716 5719 5721 5725 5729 5730 5731 5735 5737 5738 5741 5743 5746 5751 5749 5750 5762 5768 5765 5766 5767 5767 5767 5767 5768 5769 5769 5769 5769 5768 5768 5769 5770
5434 5443 5445 5446 5448 5449 5449 5452 5457 5462 5471 5480 5486 5491 5498 5503 5510 5516 5521 5525 5529 5535 5541 5544 5549 5559 5569 5579 5589 5595 5600 5605 5609 5616 5623 5629 5636 5642 5646 5651 5656 5660 5665 5669 5674 5678 5680 5680 5682 5686 5689 5693 5697 5701 5705 5708 5712 5716 5720 5721 5722 5725 5728 5729 5732 5734 5736 5743 5746 5744 5750 5760 5763 5762 5763 5762 5761 5762 5762 5763 5764 5764 5764 5765 5764 5764 5764 5764
5427 5433 5436 5439 5442 5443 5444 5450 5457 5463 5471 5477 5480 5486 5494 5498 5504 5511 5516 5522 5527 5532 5537 5541 5548 5558 5568 5576 5584 5591 5597 5602 5608 5614 5619 5623 5629 5635 5640 5645 5649 5655 5664 5670 5673 5675 5674 5674 5677 5679 5681 5684 5689 5694 5701 5706 5710 5713 5714 5715 5718 5721 5722 5726 5729 5729 5734 5742 5743 5744 5751 5757 5757 5758 5758 5756 5756 5757 5758 5759 5759 5759 5760 5759 5759 5759 5759 5760
5418 5425 5430 5431 5432 5435 5439 5446 5453 5458 5465 5470 5474 5482 5488 5493 5500 5508 5512 5516 5522 5527 5534 5541 5548 5555 5562 5569 5576 5584 5593 5598 5603 5609 5613 5618 5624 5631 5636 5640 5646 5653 5658 5660 5664 5667 5667 5669 5673 5676 5681 5687 5692 5699 5705 5708 5709 5711 5712 5715 5717 5718 5720 5723 5724 5727 5736 5741 5739 5742 5748 5750 5750 5753 5752 5751 5751 5751 5752 5753 5753 5754 5754 5754 5754 5754 5754 5755
5410 5418 5423 5423 5424 5428 5434 5440 5445 5451 5459 5464 5469 5477 5483 5489 5497 5503 5506 5511 5518 5525 5530 5537 5543 5547 5553 5561 5569 5579 5589 5594 5598 5603 5608 5614 5621 5628 5632 5636 5641 5645 5648 5652 5657 5660 5660 5663 5669 5675 5680 5685 5690 5697 5701 5703 5706 5709 5710 5711 5713 5715 5717 5718 5721 5729 5735 5733 5733 5740 5743 5742 5745 5747 5746 5746 5746 5745 5746 5747 5747 5748 5748 5748 5748 5748 5748 5749
5404 5414 5418 5418 5421 5425 5430 5438 5444 5450 5457 5461 5466 5473 5479 5484 5490 5495 5500 5508 5514 5519 5525 5529 5534 5539 5547 5557 5566 5576 5585 5589 5592 5597 5603 5610 5618 5623 5626 5630 5633 5636 5641 5646 5650 5653 5655 5660 5668 5671 5673 5679 5685 5690 5694 5698 5700 5702 5703 5706 5709 5711 5713 5716 5721 5728 5728 5727 5732 5737 5737 5738 5741 5740 5739 5740 5740 5740 5741 5741 5741 5741 5741 5742 5742 5742 5743 5744
5401 5409 5412 5413 5417 5423 5430 5439 5446 5449 5453 5457 5461 5466 5471 5477 5483 5491 5499 5504 5506 5513 5520 5523 5528 5535 5545 5554 5563 5571 5579 5583 5586 5592 5600 5608 5614 5617 5621 5624 5626 5631 5637 5640 5644 5648 5652 5658 5664 5665 5669 5675 5680 5684 5689 5691 5692 5694 5697 5701 5703 5705 5708 5713 5719 5723 5722 5724 5730 5731 5731 5734 5735 5733 5733 5735 5735 5735 5735 5735 5735 5735 5735 5735 5736 5738 5739 5740
5397 5404 5408 5409 5413 5422 5429 5435 5439 5441 5447 5451 5453 5458 5466 5472 5479 5488 5494 5495 5499 5507 5515 5520 5526 5534 5542 5550 5557 5565 5576 5584 5589 5596 5602 5608 5612 5616 5620 5623 5626 5631 5635 5637 5641 5646 5650 5656 5661 5663 5665 5669 5674 5680 5683 5683 5685 5688 5690 5693 5696 5700 5704 5710 5715 5716 5715 5720 5724 5724 5726 5731 5730 5728 5728 5730 5730 5730 5731 5732 5732 5729 5729 5730 5732 5734 5736 5736
5392 5399 5402 5402 5408 5418 5423 5426 5430 5433 5438 5442 5444 5453 5461 5466 5475 5486 5488 5489 5496 5503 5511 5520 5527 5534 5541 5547 5553 5563 5577 5587 5594 5600 5604 5608 5614 5619 5622 5625 5628 5630 5633 5636 5641 5644 5647 5651 5655 5657 5657 5661 5669 5674 5674 5676 5679 5679 5680 5684 5690 5695 5701 5706 5710 5710 5712 5717 5719 5717 5721 5727 5727 5725 5726 5726 5726 5726 5726 5726 5724 5723 5725 5726 5728 5730 5731 5731
5384 5389 5392 5394 5400 5410 5414 5418 5423 5424 5427 5436 5443 5451 5457 5463 5475 5482 5481 5485 5494 5500 5510 5520 5526 5531 5535 5538 5548 5569 5585 5590 5593 5597 5599 5602 5607 5612 5616 5621 5624 5627 5631 5635 5638 5641 5643 5645 5648 5650 5652 5658 5664 5665 5667 5669 5666 5664 5673 5684 5689 5693 5697 5699 5703 5706 5709 5711 5710 5711 5719 5723 5721 5721 5722 5721 5721 5720 5718 5717 5718 5719 5721 5723 5725 5727 5727 5728